Flag for Western Sahara Weather past 2 weeks in El Aaiún, Western Sahara

Now
68 °F

Partly sunny.


Feels Like: 68 °F
Forecast: 70 / 86 °F
Wind: 7 mph from Northeast

Location: Laayoune/Hassan Isl

Current Time: Oct 2, 2014 at 9:30:00 AM

Latest Report: Oct 2, 2014 at 9:03 AM


Visibility: 3 mi

Pressure: 30.04 "Hg

Humidity: 100%

Dew point: 68 °F

Location of El AaiúnLocation

Historic Weather in El Aaiún — Graph

°F

El Aaiún temperature yesterday

Maximum temperature yesterday: 82 °F (at 4:00 PM)
Minimum temperature yesterday: 66 °F (at 5:00 AM)
Average temperature yesterday: 74 °F

Past Weeks' High & Low Weather Summary

 TemperatureHumidityPressure
High88 °F (Sep 26, 3:00 PM)100% (Sep 17, 8:01 AM)30.18 "Hg (Sep 17, 8:01 AM)
Low66 °F (Sep 29, 5:00 AM)31% (Sep 26, 3:00 PM)29.89 "Hg (Sep 17, 3:00 PM)
Average75 °F70%30.03 "Hg
* Reported Sep 17 8:00 AM — Oct 2 8:21 AM, El Aaiún, Weather by CustomWeather, © 2014

Note: Actual official high and low records may vary slightly from our data, if they occured in-between our weather recording intervals... More about our weather records

Advertising

El Aaiún weather history for previous 24 hours

 ConditionsComfort  
Time TempWeatherWind HumidityBarometerVisibility
8:21 AM
Oct 2
68 °FFog.6 mph100%30.01 "Hg0 mi
8:00 AM68 °FFog.5 mph100%30.01 "Hg2 mi
7:45 AM68 °FFog.6 mph100%30.01 "Hg1 mi
7:11 AM68 °FFog.6 mph100%30.01 "Hg1 mi
7:00 AM68 °FFog.6 mph88%30.01 "Hg1 mi
6:23 AM68 °FFog.8 mph100%30.01 "Hg1 mi
6:13 AM68 °FFog.8 mph100%30.01 "Hg1 mi
6:00 AM68 °FFog.7 mph88%29.98 "Hg1 mi
5:21 AM68 °FFog.8 mph100%29.98 "Hg1 mi
5:00 AM68 °FFog.9 mph100%29.98 "Hg1 mi
4:40 AM68 °FFog.10 mph100%29.98 "Hg2 mi
4:25 AM68 °FFog.10 mph100%30.01 "Hg1 mi
4:00 AM70 °FPassing clouds.9 mph94%30.01 "Hg5 mi
3:29 AM68 °FFog.7 mph94%30.01 "Hg0 mi
3:19 AM68 °FFog.6 mph94%30.01 "Hg1 mi
3:06 AM68 °FFog.7 mph94%30.01 "Hg2 mi
3:00 AM68 °FFog.7 mph94%30.01 "Hg3 mi
2:00 AM70 °FPassing clouds.7 mph94%30.01 "Hg3 mi
1:00 AM72 °FPassing clouds.9 mph88%30.01 "Hg5 mi
12:00 AM72 °FPassing clouds.10 mph88%30.04 "Hg5 mi
11:00 PM
Oct 1
72 °FMild.12 mph88%30.04 "Hg5 mi
10:00 PM73 °FPassing clouds.15 mph78%30.01 "Hg5 mi
9:00 PM73 °FMild.16 mph78%30.04 "HgN/A
8:00 PM75 °FScattered clouds.18 mph74%29.98 "Hg5 mi
7:00 PM79 °FScattered clouds.18 mph61%29.98 "Hg5 mi
6:00 PM81 °FScattered clouds.18 mph58%29.95 "Hg5 mi
5:00 PM82 °FScattered clouds.18 mph55%29.95 "Hg5 mi
4:00 PM82 °FScattered clouds.20 mph55%29.95 "Hg5 mi
3:00 PM81 °FScattered clouds.21 mph58%29.98 "Hg5 mi
2:00 PM81 °FCloudy.21 mph58%30.01 "HgN/A
1:00 PM79 °FPartly sunny.15 mph61%30.04 "Hg5 mi
12:00 PM79 °FCloudy.17 mph61%30.04 "HgN/A
11:24 AM79 °FPassing clouds.18 mph58%30.04 "HgN/A
11:00 AM75 °FBroken clouds.17 mph69%30.04 "Hg5 mi
10:00 AM73 °FPartly sunny.14 mph78%30.04 "Hg5 mi
9:00 AM70 °FPartly sunny.6 mph88%30.01 "Hg4 mi
Weather by CustomWeather, © 2014

See weather overviewHow to use our weather pages